This is the latest recevied weather packets stored in our database for station/object W5GMO. If no packets are shown the sender has not sent any weather packets the latest 10 day(s).
| Time | Temp. | Humidity | Pressure | Rain* | Wind** | Luminosity | Snow |
|---|---|---|---|---|---|---|---|
| 1788216112 | 30° C | 1% | 1018.3 hPa | 0 mm | - | 48 W/m² | - |
| 1788215808 | 30° C | 1% | 1018.2 hPa | 0 mm | - | 54 W/m² | - |
| 1788215504 | 30° C | 1% | 1018.5 hPa | 0 mm | - | 65 W/m² | - |
| 1788215199 | 30° C | 1% | 1018.6 hPa | 0 mm | - | 60 W/m² | - |
| 1788214895 | 30° C | 1% | 1018.5 hPa | 0 mm | - | 60 W/m² | - |
| 1788214590 | 30° C | 1% | 1018.5 hPa | 0 mm | - | 73 W/m² | - |
| 1788214285 | 29.44° C | 1% | 1018.6 hPa | 0 mm | - | 83 W/m² | - |
| 1788213980 | 29.44° C | 1% | 1018.7 hPa | 0 mm | - | 94 W/m² | - |
| 1788213676 | 29.44° C | 1% | 1018.7 hPa | 0 mm | - | 94 W/m² | - |
| 1788213371 | 29.44° C | 1% | 1018.6 hPa | 0 mm | - | 96 W/m² | - |
| 1788213066 | 29.44° C | 1% | 1018.8 hPa | 0 mm | - | 90 W/m² | - |
| 1788212764 | 30° C | 1% | 1018.7 hPa | 0 mm | - | 75 W/m² | - |
| 1788212460 | 30° C | 1% | 1018.5 hPa | 0 mm | - | 57 W/m² | - |
| 1788212156 | 30° C | 1% | 1018.7 hPa | 0 mm | - | 52 W/m² | - |
| 1788211851 | 30° C | 1% | 1018.7 hPa | 0 mm | - | 56 W/m² | - |
| 1788211547 | 30° C | 1% | 1018.5 hPa | 0 mm | - | 63 W/m² | - |
| 1788211244 | 30.56° C | 1% | 1018.5 hPa | 0 mm | - | 77 W/m² | - |
| 1788210943 | 30.56° C | 1% | 1018.6 hPa | 0 mm | - | 88 W/m² | - |
| 1788210642 | 30.56° C | 1% | 1018.5 hPa | 0 mm | - | 99 W/m² | - |
| 1788210338 | 30.56° C | 1% | 1018.4 hPa | 0 mm | - | 105 W/m² | - |
| 1788210034 | 30.56° C | 1% | 1018.5 hPa | 0 mm | - | 118 W/m² | - |
| 1788209733 | 30.56° C | 1% | 1018.4 hPa | 0 mm | - | 119 W/m² | - |
| 1788209429 | 30.56° C | 1% | 1018.5 hPa | 0 mm | - | 136 W/m² | - |
| 1788209124 | 30.56° C | 1% | 1018.6 hPa | 0 mm | - | 168 W/m² | - |
| 1788208823 | 30.56° C | 1% | 1018.4 hPa | 0 mm | - | 166 W/m² | - |
* Rain latest hour (hover to see other rain measurements)
** Current wind speed in m/s (hover to see current wind gust speed)